Regional Weather Roundup
Issued by NWS

Home | Current Version | Previous Version | Graphics & Text | Print | Product List | Glossary On
Versions: 1 2 3 4 5 6 7 8 9 10 11 12 13 14 15 16 17 18 19 20 21 22 23 24 25 26 27 28 29 30 31 32 33 34 35 36 37 38 39 40 41 42 43 44 45 46 47 48 49 50
000
ASUS43 KFSD 230410
RWRSD

WEATHER ROUNDUP FOR SOUTH DAKOTA
NATIONAL WEATHER SERVICE SIOUX FALLS SD
1100 PM CDT FRI MAY 22 2015

NOTE: "FAIR" INDICATES FEW OR NO CLOUDS BELOW 12,000 FEET WITH NO
SIGNIFICANT WEATHER AND/OR OBSTRUCTIONS TO VISIBILITY.


SDZ001>005-009-010-012>017-230500-
NORTHWEST AND NORTH CENTRAL SOUTH DAKOTA

CITY           SKY/WX    TMP DP  RH WIND       PRES   REMARKS
BUFFALO          N/A     51  39  63 SE16      30.02R
FAITH            N/A     50  39  66 SE9       30.11R
MOBRIDGE       PTCLDY    57  45  64 S10       30.11R
$$

SDZ012>016-024>037-041>051-057-063-072>074-230500-
SOUTHWEST AND SOUTH CENTRAL SOUTH DAKOTA

CITY           SKY/WX    TMP DP  RH WIND       PRES   REMARKS
RAPID CTY ARPT CLOUDY    50  43  77 S10       30.09S
PIERRE         PTCLDY    50  41  71 S12       30.15R
CUSTER         CLOUDY    41  39  93 SE3       30.09S FOG
ELLSWORTH AFB  CLOUDY    50  43  76 S13       30.08
PHILIP         CLOUDY    52  44  74 SE7       30.12S
PINE RIDGE     CLOUDY    48  42  80 SE10      30.10S
SPEARFISH      CLOUDY    45  39  81 E7        30.06S
WINNER         CLOUDY    52  41  66 SE9       30.17R
$$

SDZ004>011-016>023-039-040-230500-
NORTHEAST SOUTH DAKOTA

CITY           SKY/WX    TMP DP  RH WIND       PRES   REMARKS
ABERDEEN       MOCLDY    58  44  60 S14       30.16R
WATERTOWN      PTCLDY    56  43  61 SW9       30.20R
BROOKINGS      CLOUDY    55  43  62 CALM      30.22S
SISSETON         N/A     60  40  47 SW5       30.14R
$$

SDZ017-020-022-023-036>040-048>070-230500-
SOUTHEAST SOUTH DAKOTA

CITY           SKY/WX    TMP DP  RH WIND       PRES   REMARKS
SIOUX FALLS    CLOUDY    57  43  59 S3        30.19S
HURON          PTCLDY    53  42  66 S5        30.19R
CHAMBERLAIN    MOCLDY    49  41  74 S5        30.18S
MITCHELL       CLOUDY    54  46  74 NE3       30.19R
YANKTON        CLOUDY    59  41  51 S15       30.19R
$$

ABBREVIATIONS USED IN REMARKS
   TC - TEMPERATURE IN CELSIUS
  WCI - WIND CHILL INDEX
   HX - HEAT INDEX
  VSB - VISIBILITY




USA.gov is the U.S. government's official web portal to all federal, state and local government web resources and services.